Regional Weather Roundup
Issued by NWS

Home | Current Version | Previous Version | Graphics & Text | Print | Product List | Glossary Off
Versions: 1 2 3 4 5 6 7 8 9 10 11 12 13 14 15 16 17 18 19 20 21 22 23 24 25 26 27 28 29 30 31 32 33 34 35 36 37 38 39 40 41 42 43 44 45 46 47 48 49 50

000
ASUS43 KFSD 290810
RWRSD

WEATHER ROUNDUP FOR SOUTH DAKOTA
NATIONAL WEATHER SERVICE SIOUX FALLS SD
300 AM CDT SAT APR 29 2017

NOTE: "FAIR" INDICATES FEW OR NO CLOUDS BELOW 12,000 FEET WITH NO
SIGNIFICANT WEATHER AND/OR OBSTRUCTIONS TO VISIBILITY.


SDZ001>005-009-010-012>017-290900-
NORTHWEST AND NORTH CENTRAL SOUTH DAKOTA

CITY           SKY/WX    TMP DP  RH WIND       PRES   REMARKS
BUFFALO          N/A     39  27  62 W5        30.13S
FAITH            N/A     37  19  48 CALM      30.20S
MOBRIDGE       CLOUDY    33  17  51 N7        30.18F WCI  27
$$

SDZ012>016-024>037-041>051-057-063-072>074-290900-
SOUTHWEST AND SOUTH CENTRAL SOUTH DAKOTA

CITY           SKY/WX    TMP DP  RH WIND       PRES   REMARKS
RAPID CTY ARPT CLEAR     29  20  69 NE6       30.19R WCI  23
PIERRE         MOCLDY    34  20  56 CALM      30.21R
CUSTER         PTCLDY    27  15  61 E5        30.16R WCI  22
ELLSWORTH AFB  PTCLDY    33  24  70 CALM      30.18R
PHILIP         MOCLDY    31  27  85 W3        30.21R
PINE RIDGE     CLOUDY    33  27  78 CALM      30.17S
SPEARFISH      FAIR      30  27  86 SW8       30.17F WCI  23
WINNER         FAIR      37  25  61 N6        30.18S
$$

SDZ004>011-016>023-039-040-290900-
NORTHEAST SOUTH DAKOTA

CITY           SKY/WX    TMP DP  RH WIND       PRES   REMARKS
ABERDEEN       CLOUDY    27  22  81 NW3       30.22S
WATERTOWN      CLOUDY    29  21  72 CALM      30.19F
BROOKINGS      CLOUDY    34  24  67 NE6       30.18F WCI  29
SISSETON         N/A     28  23  81 CALM      30.21R
$$

SDZ017-020-022-023-036>040-048>070-290900-
SOUTHEAST SOUTH DAKOTA

CITY           SKY/WX    TMP DP  RH WIND       PRES   REMARKS
SIOUX FALLS    CLOUDY    33  26  75 N6        30.16F WCI  28
HURON          CLOUDY    24  20  84 NW5       30.22R WCI  18
CHAMBERLAIN    CLOUDY    40  23  49 N6        30.19S
MITCHELL       CLOUDY    33  25  72 NW7       30.23R WCI  27
YANKTON        CLOUDY    43  25  49 N10       30.15F
$$

ABBREVIATIONS USED IN REMARKS
   TC - TEMPERATURE IN CELSIUS
  WCI - WIND CHILL INDEX
   HX - HEAT INDEX
  VSB - VISIBILITY





USA.gov is the U.S. government's official web portal to all federal, state and local government web resources and services.